Terminal Aerodrome Forecast
Issued by NWS Greer, SC

Current Version | Previous Version | Text Only | Print | Product List | Glossary On
Versions: 1 2 3 4 5 6 7 8 9 10 11 12 13 14 15 16 17 18 19 20 21 22 23 24 25 26 27 28 29
000
FTUS42 KGSP 301415 AAB
TAFAVL
TAF AMD
KAVL 301415Z 3014/0112 34009KT P6SM VCSH SCT045 BKN100
      TEMPO 3014/3017 6SM -SHRA BKN060
     FM302000 33006KT P6SM -TSRA BKN045CB
     FM302300 33006KT P6SM BKN045 PROB30 0101/0105 4SM TSRA OVC030CB
     FM010500 33004KT P6SM SCT045=

USA.gov is the U.S. government's official web portal to all federal, state and local government web resources and services.